Weather History for LICC - May, 2013

Change the Weather History Date:

Friday, May 24, 2013

  Actual Average Record
Temperature  
Mean Temperature 65 °F -  
Max Temperature 77 °F 82 °F 87 °F (2006)
Min Temperature 53 °F 59 °F 53 °F (1997)
Growing Degree Days 15 (Base 50)    
Moisture  
Dew Point 45 °F    
Average Humidity 53    
Maximum Humidity 72    
Minimum Humidity 19    
Precipitation  
Precipitation 0.00 in 0.01 in - ()
Sea Level Pressure  
Sea Level Pressure 29.92 in    
Wind  
Wind Speed 11 mph ()    
Max Wind Speed 17 mph    
Max Gust Speed -    
Visibility 6.2 miles    
Events      
Averages and records for this station are not official NWS values.
T = Trace of Precipitation, MM = Missing Value Source: Averaged Metar Reports

Daily Weather History Graph

Daily Weather History Graph

Search for Another Location

Airport or City:

Trip Planner

Search our weather history database for the weather conditions in past years. The results will help you decide how hot, cold, wet, or windy it might be!

Date:

Astronomy

May. 24, 2013 Rise Set
Actual Time 5:44 AM CEST 8:09 PM CEST
Civil Twilight 5:14 AM CEST 8:39 PM CEST
Nautical Twilight 4:37 AM CEST 9:16 PM CEST
Astronomical Twilight 3:56 AM CEST 9:57 PM CEST
Moon 7:32 PM CEST (5/24) 5:00 AM CEST (5/24)
Length of Visible Light 15h 25m
Length of Day
14h 25m
Waxing Gibbous, 99% of the Moon is Illuminated
May 24
Waxing Gibbous
May 25
Full
May 31
Last Quarter
Jun 8
New
Jun 16
First Quarter

Hourly Weather History & Observations

Time (CEST) Temp. Dew Point Humidity Pressure Visibility Wind Dir Wind Speed Gust Speed Precip Events Conditions
12:20 AM 59.0 °F 44.6 °F 59% 29.83 in - WSW 16.1 mph - N/A   Clear
12:50 AM 59.0 °F 46.4 °F 63% 29.83 in - WSW 17.3 mph - N/A   Clear
1:20 AM 57.2 °F 46.4 °F 67% 29.83 in - WSW 16.1 mph - N/A   Clear
1:50 AM 57.2 °F 46.4 °F 67% 29.83 in - WSW 17.3 mph - N/A   Clear
2:20 AM 57.2 °F 46.4 °F 67% 29.83 in - WSW 17.3 mph - N/A   Clear
2:50 AM 57.2 °F 46.4 °F 67% 29.83 in - WSW 13.8 mph - N/A   Clear
3:20 AM 57.2 °F 46.4 °F 67% 29.86 in - WSW 11.5 mph - N/A   Clear
3:50 AM 55.4 °F 46.4 °F 72% 29.86 in - WSW 15.0 mph - N/A   Clear
4:20 AM 55.4 °F 44.6 °F 67% 29.86 in - WSW 10.4 mph - N/A   Clear
4:50 AM 53.6 °F 44.6 °F 72% 29.86 in - West 9.2 mph - N/A   Clear
5:20 AM 53.6 °F 44.6 °F 72% 29.86 in - West 11.5 mph - N/A   Clear
5:50 AM 55.4 °F 44.6 °F 67% 29.89 in - West 15.0 mph - N/A   Clear
6:20 AM 53.6 °F 44.6 °F 72% 29.89 in - West 6.9 mph - N/A   Clear
6:50 AM 55.4 °F 44.6 °F 67% 29.92 in - NW 5.8 mph - N/A   Clear
7:20 AM 59.0 °F 44.6 °F 59% 29.92 in - WNW 6.9 mph - N/A   Clear
7:50 AM 60.8 °F 44.6 °F 55% 29.92 in - West 6.9 mph - N/A   Clear
8:20 AM 62.6 °F 44.6 °F 52% 29.92 in - WSW 11.5 mph - N/A   Clear
8:50 AM 66.2 °F 42.8 °F 43% 29.92 in - West 13.8 mph - N/A   Clear
9:20 AM 68.0 °F 42.8 °F 40% 29.92 in - West 13.8 mph - N/A   Clear
9:50 AM 69.8 °F 39.2 °F 33% 29.92 in - West 15.0 mph - N/A   Clear
10:20 AM 71.6 °F 37.4 °F 29% 29.92 in - West 12.7 mph - N/A   Clear
11:20 AM 75.2 °F 35.6 °F 24% 29.92 in - West 13.8 mph - N/A   Clear
12:20 PM 77.0 °F 32.0 °F 19% 29.92 in - West 16.1 mph - N/A   Clear
1:20 PM 69.8 °F 46.4 °F 43% 29.92 in 6.2 mi ENE 17.3 mph - N/A   Partly Cloudy
1:50 PM 69.8 °F 48.2 °F 46% 29.95 in 6.2 mi ENE 15.0 mph - N/A   Partly Cloudy
2:20 PM 68.0 °F 50.0 °F 52% 29.95 in 6.2 mi ENE 10.4 mph - N/A   Partly Cloudy
2:50 PM 69.8 °F 50.0 °F 49% 29.95 in 6.2 mi ENE 13.8 mph - N/A   Partly Cloudy
3:20 PM 69.8 °F 50.0 °F 49% 29.95 in 6.2 mi ENE 13.8 mph - N/A   Partly Cloudy
3:50 PM 69.8 °F 48.2 °F 46% 29.95 in 6.2 mi ENE 13.8 mph - N/A   Partly Cloudy
4:20 PM 69.8 °F 44.6 °F 40% 29.95 in 6.2 mi ENE 12.7 mph - N/A   Partly Cloudy
4:50 PM 69.8 °F 42.8 °F 38% 29.95 in 6.2 mi ENE 12.7 mph - N/A   Partly Cloudy
5:20 PM 69.8 °F 44.6 °F 40% 29.92 in 6.2 mi East 13.8 mph - N/A   Partly Cloudy
5:50 PM 69.8 °F 42.8 °F 38% 29.95 in 6.2 mi ENE 9.2 mph - N/A   Partly Cloudy
6:20 PM 68.0 °F 44.6 °F 43% 29.95 in 6.2 mi East 8.1 mph - N/A   Partly Cloudy
6:50 PM 68.0 °F 48.2 °F 49% 29.95 in 6.2 mi East 5.8 mph - N/A   Partly Cloudy
7:20 PM 68.0 °F 46.4 °F 46% 29.95 in 6.2 mi ESE 5.8 mph - N/A   Partly Cloudy
7:50 PM 66.2 °F 48.2 °F 52% 29.98 in 6.2 mi East 3.5 mph - N/A   Partly Cloudy
8:20 PM 64.4 °F 51.8 °F 64% 29.98 in 6.2 mi SE 6.9 mph - N/A   Partly Cloudy
8:50 PM 64.4 °F 50.0 °F 59% 29.98 in - East 4.6 mph - N/A   Clear
9:20 PM 62.6 °F 51.8 °F 68% 29.98 in - SE 4.6 mph - N/A   Clear
9:50 PM 62.6 °F 50.0 °F 63% 30.01 in - Variable 2.3 mph - N/A   Clear
10:20 PM 62.6 °F 48.2 °F 59% 30.01 in - Variable 3.5 mph - N/A   Clear
10:50 PM 60.8 °F 44.6 °F 55% 30.01 in - West 5.8 mph - N/A   Clear
11:20 PM 62.6 °F 42.8 °F 48% 30.01 in - SW 5.8 mph - N/A   Clear
11:50 PM 59.0 °F 42.8 °F 55% 30.01 in - West 4.6 mph - N/A   Clear